User: anonymous   Login
Location: Hancock Field Station
(44.9202°N, 120.4259°W)
Time: 03:22:26
(UTC-07:00)
Language:

Nadezhda 4 Rocket - Orbit

View from above orbital plane
View from above orbital plane
View from above satellite
View from above satellite

Ground track
Ground track

The orbit data is extracted from the following two-line orbital elements,

1 23180U 94041B   14304.13428407  .00000031  00000-0  15221-4 0  5538
2 23180 082.9435 285.3986 0029615 038.9683 009.7651 13.77849389 20692
Epoch (UTC): 31 October 2014 03:13:22
Eccentricity: 0.0029615
inclination: 82.9435°
perigee height: 950 km
apogee height: 993 km
right ascension of ascending node: 285.3986°
argument of perigee: 38.9683°
revolutions per day: 13.77849389
mean anomaly at epoch: 9.7651°
orbit number at epoch: 2069

The dashed part of the orbit path shows where the satellite is in the earth's shadow,  

DLR